Total_Precipitation_Accumulation
0.00 0.00 0.00 0.00 0.00 0.00 0.00 0.00 0.00 0.00 0.00 0.00 0.00 0.00 0.00 0.00 0.00 0.00 0.00 0.00 0.00 0.00 0.00 0.01 0.01 0.02 0.02 0.02 0.02 0.02 0.04 0.02 0.04 0.02 0.01 0.02 0.06 0.04 0.03 0.03 0.06 0.04
0.00 0.00 0.00 0.00 0.00 0.00 0.00 0.00 0.00 0.00 0.00 0.00 0.00 0.00 0.00 0.00 0.00 0.00 0.00 0.00 0.00 0.00 0.00 0.00 0.01 0.01 0.01 0.01 0.02 0.02 0.02 0.03 0.02 0.05 0.02 0.01 0.03 0.03 0.02 0.03 0.05 0.08
0.00 0.00 0.00 0.00 0.00 0.00 0.00 0.00 0.00 0.00 0.00 0.00 0.00 0.00 0.00 0.00 0.00 0.00 0.00 0.00 0.00 0.01 0.00 0.00 0.00 0.00 0.01 0.01 0.03 0.02 0.03 0.02 0.01 0.01 0.02 0.02 0.02 0.02 0.10 0.02 0.03 0.02
0.00 0.00 0.00 0.00 0.00 0.00 0.00 0.00 0.00 0.00 0.00 0.00 0.00 0.00 0.00 0.00 0.00 0.00 0.00 0.00 0.00 0.00 0.00 0.00 0.00 0.01 0.00 0.01 0.03 0.02 0.02 0.04 0.01 0.01 0.02 0.01 0.01 0.02 0.02 0.02 0.03 0.03
0.00 0.00 0.00 0.00 0.00 0.00 0.00 0.00 0.00 0.00 0.00 0.00 0.00 0.00 0.00 0.00 0.00 0.00 0.00 0.00 0.00 0.00 0.00 0.00 0.00 0.00 0.00 0.01 0.01 0.01 0.01 0.07 0.05 0.02 0.03 0.05 0.04 0.02 0.02 0.02 0.02 0.03
0.00 0.00 0.00 0.00 0.00 0.00 0.00 0.00 0.00 0.00 0.00 0.00 0.00 0.00 0.00 0.00 0.00 0.00 0.00 0.00 0.00 0.00 0.00 0.00 0.00 0.01 0.00 0.00 0.01 0.00 0.03 0.02 0.02 0.01 0.03 0.02 0.04 0.02 0.01 0.01 0.02 0.01
0.00 0.00 0.00 0.00 0.00 0.00 0.00 0.00 0.00 0.00 0.00 0.00 0.00 0.00 0.00 0.00 0.00 0.00 0.00 0.00 0.00 0.02 0.02 0.01 0.01 0.02 0.00 0.00 0.01 0.01 0.01 0.01 0.01 0.02 0.02 0.01 0.02 0.02 0.01 0.01 0.01 0.01
0.00 0.00 0.00 0.00 0.00 0.00 0.00 0.00 0.00 0.00 0.00 0.00 0.00 0.00 0.00 0.00 0.02 0.03 0.04 0.01 0.00 0.00 0.00 0.01 0.02 0.02 0.03 0.01 0.01 0.01 0.02 0.01 0.02 0.02 0.02 0.01 0.01 0.01 0.00 0.01 0.01 0.01
0.03 0.00 0.00 0.00 0.00 0.00 0.00 0.00 0.00 0.00 0.00 0.00 0.00 0.00 0.02 0.02 0.01 0.00 0.01 0.00 0.02 0.00 0.01 0.01 0.01 0.07 0.05 0.01 0.02 0.01 0.01 0.02 0.02 0.03 0.02 0.01 0.02 0.01 0.01 0.00 0.01 0.01
0.07 0.04 0.00 0.00 0.00 0.01 0.03 0.06 0.01 0.01 0.02 0.02 0.03 0.04 0.03 0.03 0.00 0.00 0.02 0.06 0.00 0.01 0.02 0.01 0.02 0.06 0.03 0.04 0.01 0.01 0.03 0.03 0.03 0.03 0.02 0.02 0.03 0.01 0.00 0.00 0.01 0.01
0.25 0.16 0.03 0.00 0.03 0.03 0.01 0.01 0.00 0.01 0.01 0.03 0.04 0.08 0.03 0.01 0.00 0.02 0.01 0.01 0.02 0.02 0.04 0.02 0.03 0.02 0.01 0.02 0.02 0.02 0.01 0.03 0.02 0.04 0.02 0.03 0.01 0.00 0.00 0.01 0.02 0.02
1.15 0.25 0.02 0.14 0.08 0.04 0.03 0.02 0.02 0.02 0.03 0.04 0.03 0.02 0.02 0.02 0.02 0.01 0.01 0.03 0.02 0.04 0.04 0.03 0.02 0.08 0.08 0.07 0.04 0.03 0.01 0.02 0.01 0.03 0.03 0.03 0.01 0.01 0.00 0.01 0.02 0.02
0.79 0.18 0.08 0.14 0.14 0.10 0.06 0.02 0.02 0.08 0.08 0.05 0.04 0.03 0.03 0.02 0.02 0.02 0.02 0.02 0.01 0.03 0.02 0.03 0.04 0.12 0.20 0.10 0.07 0.07 0.04 0.03 0.01 0.02 0.04 0.03 0.01 0.00 0.01 0.01 0.02 0.01
0.93 1.17 1.11 0.32 0.15 0.11 0.05 0.11 0.07 0.12 0.07 0.09 0.07 0.07 0.04 0.02 0.02 0.03 0.03 0.01 0.01 0.01 0.00 0.01 0.03 0.12 0.12 0.12 0.09 0.10 0.05 0.03 0.02 0.02 0.02 0.04 0.01 0.01 0.01 0.02 0.01 0.01
1.55 2.01 1.16 0.85 0.55 0.38 0.13 0.13 0.23 0.17 0.15 0.10 0.08 0.05 0.05 0.06 0.07 0.06 0.05 0.03 0.01 0.00 0.01 0.07 0.12 0.14 0.07 0.10 0.06 0.05 0.03 0.02 0.03 0.02 0.04 0.02 0.02 0.01 0.01 0.01 0.01 0.01
1.36 1.88 1.40 1.25 1.03 1.47 1.02 0.57 0.45 0.57 0.42 0.17 0.12 0.13 0.10 0.08 0.06 0.04 0.02 0.01 0.00 0.00 0.01 0.03 0.01 0.04 0.04 0.01 0.01 0.03 0.03 0.02 0.03 0.03 0.02 0.03 0.02 0.01 0.01 0.01 0.01 0.01
1.61 1.16 0.94 1.12 0.94 1.38 1.65 1.31 1.45 1.65 0.96 0.17 0.11 0.10 0.08 0.05 0.08 0.02 0.02 0.01 0.01 0.00 0.00 0.01 0.01 0.11 0.01 0.03 0.01 0.00 0.01 0.00 0.02 0.01 0.02 0.02 0.02 0.01 0.03 0.01 0.01 0.08
1.14 1.14 0.85 1.08 1.35 1.09 1.37 2.20 2.14 1.64 1.04 0.50 0.19 0.15 0.11 0.09 0.10 0.07 0.03 0.02 0.01 0.01 0.01 0.01 0.07 0.03 0.02 0.01 0.00 0.00 0.01 0.01 0.02 0.05 0.04 0.12 0.05 0.04 0.07 0.07 0.12 0.18
1.51 1.38 1.03 1.19 1.46 1.47 1.81 2.29 1.74 2.31 1.46 1.10 0.63 0.44 0.25 0.09 0.06 0.03 0.01 0.02 0.02 0.03 0.01 0.03 0.06 0.03 0.02 0.01 0.01 0.00 0.00 0.03 0.00 0.03 0.08 0.07 0.11 0.07 0.06 0.03 0.06 0.04
1.77 2.05 1.65 1.30 1.33 1.59 1.81 1.52 1.51 1.61 1.67 1.52 1.13 1.01 0.41 0.21 0.05 0.02 0.01 0.01 0.03 0.03 0.03 0.03 0.05 0.03 0.01 0.00 0.01 0.01 0.00 0.00 0.03 0.01 0.02 0.04 0.01 0.05 0.04 0.23 0.17 0.14
1.56 1.69 1.35 1.64 1.72 1.88 1.56 1.69 1.62 1.71 1.85 1.78 1.46 1.15 0.82 0.73 0.49 0.38 0.26 0.09 0.20 0.05 0.02 0.04 0.01 0.00 0.02 0.00 0.01 0.00 0.00 0.01 0.07 0.02 0.04 0.04 0.05 0.02 0.52 0.12 0.17 0.40
0.77 0.93 1.59 2.13 2.59 2.25 1.68 1.99 1.39 1.22 1.21 0.74 0.95 0.77 0.63 0.91 0.60 0.21 0.32 0.46 0.34 0.34 0.21 0.10 0.09 0.05 0.01 0.01 0.00 0.00 0.00 0.04 0.04 0.43 0.47 0.04 0.04 0.34 0.28 0.14 0.23 0.82
0.60 0.70 1.25 1.56 2.00 1.39 1.33 1.52 1.51 0.85 0.87 0.98 0.73 0.57 0.48 0.49 0.57 0.44 0.39 0.44 0.19 0.27 0.34 0.33 0.29 0.28 0.29 0.09 0.01 0.01 0.02 0.07 0.74 0.40 0.08 0.08 0.09 0.19 0.09 0.34 0.50 0.53
0.54 0.60 0.75 1.50 1.68 1.61 1.11 0.91 0.88 1.16 0.90 1.00 0.83 0.56 0.45 0.44 0.41 0.37 0.30 0.24 0.36 0.78 0.59 0.45 0.35 0.46 0.19 0.02 0.03 0.02 0.03 0.52 0.11 0.10 0.18 0.29 0.11 0.10 0.28 0.26 0.51 0.15
0.33 0.38 0.57 0.58 1.03 1.43 1.76 1.76 0.93 1.10 1.00 1.12 0.74 0.60 0.54 0.41 0.26 0.34 0.36 0.36 0.49 0.38 0.53 0.62 0.53 0.54 0.32 0.10 0.15 0.03 0.12 0.60 0.23 0.19 0.17 0.23 0.30 0.20 0.21 0.21 0.22 0.19
0.03 0.28 0.32 0.35 1.25 1.28 1.63 1.38 0.99 0.74 1.03 1.42 0.58 0.56 0.39 0.41 0.22 0.38 0.30 0.32 0.31 0.34 0.72 0.88 1.21 1.52 0.91 0.59 0.30 0.22 0.17 0.47 0.33 0.26 0.11 0.16 0.23 0.12 0.16 0.11 0.12 0.11